Time,TemperatureF,DewpointF,PressureIn,WindDirection,WindDirectionDegrees,WindSpeedMPH,WindSpeedGustMPH,Humidity,HourlyPrecipIn,Conditions,Clouds,dailyrainin,SolarRadiationWatts/m^2,SoftwareType,DateUTC
2013-08-03 00:00:00,58.3,49.3,29.95,WSW,251,0.0,0.0,72,0.00,,,0.00,0,Wunderground v.1.15,2013-08-03 07:00:00,
2013-08-03 00:10:00,58.2,49.6,29.95,WSW,250,0.0,0.0,73,0.00,,,0.00,0,Wunderground v.1.15,2013-08-03 07:10:00,
2013-08-03 00:20:00,58.3,49.7,29.95,WSW,250,0.0,0.0,73,0.00,,,0.00,0,Wunderground v.1.15,2013-08-03 07:20:00,
2013-08-03 00:30:00,58.4,50.1,29.95,WSW,248,0.0,0.0,74,0.00,,,0.00,0,Wunderground v.1.15,2013-08-03 07:30:00,
2013-08-03 00:40:00,58.4,50.1,29.95,WSW,248,0.0,0.0,74,0.00,,,0.00,0,Wunderground v.1.15,2013-08-03 07:40:00,
2013-08-03 00:49:00,58.4,50.5,29.95,WSW,248,0.0,0.0,75,0.00,,,0.00,0,Wunderground v.1.15,2013-08-03 07:49:00,
2013-08-03 01:00:00,58.4,50.5,29.95,WSW,248,0.0,0.0,75,0.00,,,0.00,0,Wunderground v.1.15,2013-08-03 08:00:00,
2013-08-03 01:10:00,58.4,50.5,29.95,SSW,196,0.0,0.0,75,0.00,,,0.00,0,Wunderground v.1.15,2013-08-03 08:10:00,
2013-08-03 01:20:00,58.3,50.8,29.94,SSW,198,0.0,0.0,76,0.00,,,0.00,0,Wunderground v.1.15,2013-08-03 08:20:00,
2013-08-03 01:30:00,58.1,50.9,29.94,SSW,207,0.0,0.0,77,0.00,,,0.00,0,Wunderground v.1.15,2013-08-03 08:30:00,
2013-08-03 01:40:00,58.1,50.9,29.94,WSW,241,1.0,1.0,77,0.00,,,0.00,0,Wunderground v.1.15,2013-08-03 08:40:00,
2013-08-03 01:50:00,58.0,50.8,29.94,WSW,241,0.0,0.0,77,0.00,,,0.00,0,Wunderground v.1.15,2013-08-03 08:50:00,
2013-08-03 02:00:00,57.8,51.0,29.94,WSW,241,0.0,0.0,78,0.00,,,0.00,0,Wunderground v.1.15,2013-08-03 09:00:00,
2013-08-03 02:10:00,57.6,50.8,29.94,WSW,241,0.0,1.0,78,0.00,,,0.00,0,Wunderground v.1.15,2013-08-03 09:10:00,
2013-08-03 02:20:00,57.4,50.9,29.94,WSW,241,0.0,0.0,79,0.00,,,0.00,0,Wunderground v.1.15,2013-08-03 09:20:00,
2013-08-03 02:30:00,57.2,50.7,29.94,WSW,240,1.0,1.0,79,0.00,,,0.00,0,Wunderground v.1.15,2013-08-03 09:30:00,
2013-08-03 02:40:00,57.1,50.6,29.94,WSW,239,0.0,0.0,79,0.00,,,0.00,0,Wunderground v.1.15,2013-08-03 09:40:00,
2013-08-03 02:50:00,56.9,50.8,29.94,WSW,239,0.0,0.0,80,0.00,,,0.00,0,Wunderground v.1.15,2013-08-03 09:50:00,
2013-08-03 03:00:00,56.8,50.7,29.94,WSW,240,0.0,0.0,80,0.00,,,0.00,0,Wunderground v.1.15,2013-08-03 10:00:00,
2013-08-03 03:10:00,56.7,50.9,29.94,WSW,238,1.0,1.0,81,0.00,,,0.00,0,Wunderground v.1.15,2013-08-03 10:10:00,
2013-08-03 03:20:00,56.6,50.8,29.94,WSW,237,1.0,1.0,81,0.00,,,0.00,0,Wunderground v.1.15,2013-08-03 10:20:00,
2013-08-03 03:30:00,56.6,51.2,29.94,SW,228,0.0,1.0,82,0.00,,,0.00,0,Wunderground v.1.15,2013-08-03 10:30:00,
2013-08-03 03:40:00,56.6,51.2,29.94,SW,229,0.0,0.0,82,0.00,,,0.00,0,Wunderground v.1.15,2013-08-03 10:40:00,
2013-08-03 03:50:00,56.5,51.1,29.94,SW,229,0.0,0.0,82,0.00,,,0.00,0,Wunderground v.1.15,2013-08-03 10:50:00,
2013-08-03 04:00:00,56.5,51.4,29.94,SW,229,0.0,0.0,83,0.00,,,0.00,0,Wunderground v.1.15,2013-08-03 11:00:00,
2013-08-03 04:09:00,56.3,51.2,29.94,SW,229,0.0,0.0,83,0.00,,,0.00,0,Wunderground v.1.15,2013-08-03 11:09:00,
2013-08-03 04:20:00,56.2,51.1,29.94,SW,229,0.0,0.0,83,0.00,,,0.00,0,Wunderground v.1.15,2013-08-03 11:20:00,
2013-08-03 04:30:00,56.0,50.9,29.94,SW,229,0.0,0.0,83,0.00,,,0.00,0,Wunderground v.1.15,2013-08-03 11:30:00,
2013-08-03 04:40:00,55.9,51.1,29.94,SW,230,1.0,1.0,84,0.00,,,0.00,0,Wunderground v.1.15,2013-08-03 11:40:00,
2013-08-03 04:50:00,55.9,51.1,29.94,SW,229,0.0,0.0,84,0.00,,,0.00,0,Wunderground v.1.15,2013-08-03 11:50:00,
2013-08-03 05:00:00,55.8,51.0,29.95,SW,229,0.0,0.0,84,0.00,,,0.00,0,Wunderground v.1.15,2013-08-03 12:00:00,
2013-08-03 05:09:00,55.7,50.9,29.95,SW,229,0.0,0.0,84,0.00,,,0.00,0,Wunderground v.1.15,2013-08-03 12:09:00,
2013-08-03 05:20:00,55.6,51.2,29.95,SW,229,0.0,0.0,85,0.00,,,0.00,0,Wunderground v.1.15,2013-08-03 12:20:00,
2013-08-03 05:30:00,55.5,51.1,29.95,SW,229,0.0,0.0,85,0.00,,,0.00,0,Wunderground v.1.15,2013-08-03 12:30:00,
2013-08-03 05:40:00,55.4,51.0,29.95,SW,229,0.0,0.0,85,0.00,,,0.00,0,Wunderground v.1.15,2013-08-03 12:40:00,
2013-08-03 05:50:00,55.4,51.0,29.95,SW,229,0.0,0.0,85,0.00,,,0.00,0,Wunderground v.1.15,2013-08-03 12:50:00,
2013-08-03 06:00:00,55.3,50.9,29.96,SW,232,0.0,0.0,85,0.00,,,0.00,0,Wunderground v.1.15,2013-08-03 13:00:00,
2013-08-03 06:10:00,55.2,50.8,29.96,SW,232,0.0,0.0,85,0.00,,,0.00,0,Wunderground v.1.15,2013-08-03 13:10:00,
2013-08-03 06:19:00,55.2,51.1,29.96,SW,232,0.0,0.0,86,0.00,,,0.00,0,Wunderground v.1.15,2013-08-03 13:19:00,
2013-08-03 06:30:00,55.1,50.7,29.96,SW,232,0.0,0.0,85,0.00,,,0.00,12,Wunderground v.1.15,2013-08-03 13:30:00,
2013-08-03 06:40:00,55.1,51.0,29.97,SW,232,0.0,0.0,86,0.00,,,0.00,26,Wunderground v.1.15,2013-08-03 13:40:00,
2013-08-03 06:50:00,55.1,51.0,29.97,SW,232,0.0,0.0,86,0.00,,,0.00,33,Wunderground v.1.15,2013-08-03 13:50:00,
2013-08-03 07:00:00,55.3,51.2,29.97,SW,232,0.0,0.0,86,0.00,,,0.00,86,Wunderground v.1.15,2013-08-03 14:00:00,
2013-08-03 07:10:00,56.0,52.2,29.98,SW,232,0.0,0.0,87,0.00,,,0.00,113,Wunderground v.1.15,2013-08-03 14:10:00,
2013-08-03 07:20:00,57.2,53.0,29.98,SW,233,0.0,0.0,86,0.00,,,0.00,146,Wunderground v.1.15,2013-08-03 14:20:00,
2013-08-03 07:30:00,58.3,53.8,29.98,SW,231,0.0,0.0,85,0.00,,,0.00,186,Wunderground v.1.15,2013-08-03 14:30:00,
2013-08-03 07:40:00,59.3,54.1,29.98,SW,236,0.0,1.0,83,0.00,,,0.00,229,Wunderground v.1.15,2013-08-03 14:40:00,
2013-08-03 07:50:00,60.1,54.2,29.99,SSW,196,0.0,0.0,81,0.00,,,0.00,269,Wunderground v.1.15,2013-08-03 14:50:00,
2013-08-03 08:00:00,61.1,54.2,29.99,SSE,157,0.0,0.0,78,0.00,,,0.00,329,Wunderground v.1.15,2013-08-03 15:00:00,
2013-08-03 08:10:00,62.1,54.8,29.99,WNW,294,0.0,0.0,77,0.00,,,0.00,336,Wunderground v.1.15,2013-08-03 15:10:00,
2013-08-03 08:20:00,62.7,55.4,29.99,NE,46,0.0,0.0,77,0.00,,,0.00,367,Wunderground v.1.15,2013-08-03 15:20:00,
2013-08-03 08:30:00,62.8,55.1,29.99,NNW,348,1.0,2.0,76,0.00,,,0.00,390,Wunderground v.1.15,2013-08-03 15:30:00,
2013-08-03 08:40:00,63.1,55.0,29.99,East,94,2.0,2.0,75,0.00,,,0.00,425,Wunderground v.1.15,2013-08-03 15:40:00,
2013-08-03 08:50:00,64.1,55.3,29.99,ENE,67,1.0,3.0,73,0.00,,,0.00,454,Wunderground v.1.15,2013-08-03 15:50:00,
2013-08-03 09:00:00,64.1,54.1,29.99,SSE,148,1.0,1.0,70,0.00,,,0.00,489,Wunderground v.1.15,2013-08-03 16:00:00,
2013-08-03 09:10:00,64.1,55.3,29.99,ENE,63,1.0,3.0,73,0.00,,,0.00,522,Wunderground v.1.15,2013-08-03 16:10:00,
2013-08-03 09:20:00,65.2,54.8,29.99,SE,134,2.0,2.0,69,0.00,,,0.00,550,Wunderground v.1.15,2013-08-03 16:20:00,
2013-08-03 09:30:00,65.9,55.0,29.99,SE,140,1.0,1.0,68,0.00,,,0.00,582,Wunderground v.1.15,2013-08-03 16:30:00,
2013-08-03 09:40:00,67.0,55.7,29.99,East,84,2.0,2.0,67,0.00,,,0.00,613,Wunderground v.1.15,2013-08-03 16:40:00,
2013-08-03 09:50:00,67.7,55.5,29.99,SE,136,2.0,5.0,65,0.00,,,0.00,640,Wunderground v.1.15,2013-08-03 16:50:00,
2013-08-03 10:00:00,68.8,56.1,29.99,ENE,57,2.0,3.0,64,0.00,,,0.00,670,Wunderground v.1.15,2013-08-03 17:00:00,
2013-08-03 10:10:00,69.1,56.0,29.99,East,92,1.0,3.0,63,0.00,,,0.00,696,Wunderground v.1.15,2013-08-03 17:10:00,
2013-08-03 10:20:00,69.3,56.2,29.98,East,85,2.0,2.0,63,0.00,,,0.00,721,Wunderground v.1.15,2013-08-03 17:20:00,
2013-08-03 10:30:00,70.6,56.0,29.98,ESE,111,1.0,1.0,60,0.00,,,0.00,749,Wunderground v.1.15,2013-08-03 17:30:00,
2013-08-03 10:40:00,71.2,55.7,29.98,NE,46,2.0,3.0,58,0.00,,,0.00,772,Wunderground v.1.15,2013-08-03 17:40:00,
2013-08-03 10:50:00,71.2,55.7,29.98,SE,142,2.0,2.0,58,0.00,,,0.00,786,Wunderground v.1.15,2013-08-03 17:50:00,
2013-08-03 11:00:00,72.3,56.2,29.98,SE,133,2.0,2.0,57,0.00,,,0.00,812,Wunderground v.1.15,2013-08-03 18:00:00,
2013-08-03 11:10:00,72.7,55.1,29.98,ENE,61,1.0,2.0,54,0.00,,,0.00,831,Wunderground v.1.15,2013-08-03 18:10:00,
2013-08-03 11:20:00,75.6,56.7,29.97,NNE,22,1.0,1.0,52,0.00,,,0.00,846,Wunderground v.1.15,2013-08-03 18:20:00,
2013-08-03 11:29:00,76.2,56.7,29.97,NNE,31,1.0,1.0,51,0.00,,,0.00,868,Wunderground v.1.15,2013-08-03 18:29:00,
2013-08-03 11:40:00,76.5,57.6,29.97,SW,232,1.0,1.0,52,0.00,,,0.00,881,Wunderground v.1.15,2013-08-03 18:40:00,
2013-08-03 11:50:00,77.1,57.0,29.97,SSW,198,1.0,1.0,50,0.00,,,0.00,889,Wunderground v.1.15,2013-08-03 18:50:00,
2013-08-03 12:00:00,78.9,57.5,29.97,East,84,1.0,1.0,48,0.00,,,0.00,909,Wunderground v.1.15,2013-08-03 19:00:00,
2013-08-03 12:10:00,79.3,57.9,29.96,West,267,0.0,0.0,48,0.00,,,0.00,916,Wunderground v.1.15,2013-08-03 19:10:00,
2013-08-03 12:20:00,79.5,56.9,29.96,South,171,0.0,1.0,46,0.00,,,0.00,926,Wunderground v.1.15,2013-08-03 19:20:00,
2013-08-03 12:30:00,80.0,57.4,29.96,West,270,1.0,1.0,46,0.00,,,0.00,935,Wunderground v.1.15,2013-08-03 19:30:00,
2013-08-03 12:40:00,79.0,57.6,29.96,West,261,1.0,1.0,48,0.00,,,0.00,949,Wunderground v.1.15,2013-08-03 19:40:00,
2013-08-03 12:49:00,79.3,56.7,29.96,SSE,165,1.0,1.0,46,0.00,,,0.00,946,Wunderground v.1.15,2013-08-03 19:49:00,
2013-08-03 13:00:00,80.2,58.1,29.95,WSW,243,1.0,1.0,47,0.00,,,0.00,951,Wunderground v.1.15,2013-08-03 20:00:00,
2013-08-03 13:10:00,80.7,58.0,29.95,WNW,292,1.0,2.0,46,0.00,,,0.00,956,Wunderground v.1.15,2013-08-03 20:10:00,
2013-08-03 13:20:00,81.3,56.7,29.95,WNW,292,1.0,1.0,43,0.00,,,0.00,946,Wunderground v.1.15,2013-08-03 20:20:00,
2013-08-03 13:29:00,82.6,56.5,29.95,WNW,294,1.0,1.0,41,0.00,,,0.00,949,Wunderground v.1.15,2013-08-03 20:29:00,
2013-08-03 13:39:00,83.5,58.0,29.95,SSW,209,0.0,0.0,42,0.00,,,0.00,949,Wunderground v.1.15,2013-08-03 20:39:00,
2013-08-03 13:50:00,83.4,56.5,29.94,West,281,0.0,0.0,40,0.00,,,0.00,944,Wunderground v.1.15,2013-08-03 20:50:00,
2013-08-03 14:00:00,82.6,57.2,29.94,SW,223,1.0,1.0,42,0.00,,,0.00,937,Wunderground v.1.15,2013-08-03 21:00:00,
2013-08-03 14:10:00,84.1,56.5,29.94,WSW,255,0.0,0.0,39,0.00,,,0.00,928,Wunderground v.1.15,2013-08-03 21:10:00,
2013-08-03 14:20:00,83.8,56.9,29.94,SW,219,0.0,0.0,40,0.00,,,0.00,923,Wunderground v.1.15,2013-08-03 21:20:00,
2013-08-03 14:30:00,84.8,56.4,29.94,SSW,209,0.0,0.0,38,0.00,,,0.00,911,Wunderground v.1.15,2013-08-03 21:30:00,
2013-08-03 14:40:00,84.2,55.8,29.93,West,264,0.0,0.0,38,0.00,,,0.00,900,Wunderground v.1.15,2013-08-03 21:40:00,
2013-08-03 14:50:00,84.7,56.3,29.93,SW,236,0.0,0.0,38,0.00,,,0.00,645,Wunderground v.1.15,2013-08-03 21:50:00,
2013-08-03 15:00:00,84.5,56.1,29.93,SW,214,0.0,0.0,38,0.00,,,0.00,868,Wunderground v.1.15,2013-08-03 22:00:00,
2013-08-03 15:09:00,84.2,55.8,29.93,SW,217,0.0,0.0,38,0.00,,,0.00,408,Wunderground v.1.15,2013-08-03 22:09:00,
2013-08-03 15:20:00,85.4,56.2,29.93,West,276,0.0,0.0,37,0.00,,,0.00,244,Wunderground v.1.15,2013-08-03 22:20:00,
2013-08-03 15:30:00,86.1,56.0,29.92,WNW,296,0.0,0.0,36,0.00,,,0.00,179,Wunderground v.1.15,2013-08-03 22:30:00,
2013-08-03 15:40:00,86.4,55.5,29.92,East,86,0.0,0.0,35,0.00,,,0.00,705,Wunderground v.1.15,2013-08-03 22:40:00,
2013-08-03 15:50:00,84.5,55.4,29.92,West,262,0.0,0.0,37,0.00,,,0.00,773,Wunderground v.1.15,2013-08-03 22:50:00,
2013-08-03 16:00:00,84.5,56.1,29.92,NW,321,0.0,0.0,38,0.00,,,0.00,754,Wunderground v.1.15,2013-08-03 23:00:00,
2013-08-03 16:10:00,83.9,55.6,29.92,West,273,0.0,1.0,38,0.00,,,0.00,726,Wunderground v.1.15,2013-08-03 23:10:00,
2013-08-03 16:20:00,83.6,54.6,29.92,WSW,253,0.0,0.0,37,0.00,,,0.00,703,Wunderground v.1.15,2013-08-03 23:20:00,
2013-08-03 16:30:00,83.5,54.5,29.92,SW,217,0.0,0.0,37,0.00,,,0.00,677,Wunderground v.1.15,2013-08-03 23:30:00,
2013-08-03 16:40:00,83.4,54.4,29.91,West,271,0.0,0.0,37,0.00,,,0.00,647,Wunderground v.1.15,2013-08-03 23:40:00,
2013-08-03 16:50:00,83.1,54.1,29.91,WNW,282,0.0,0.0,37,0.00,,,0.00,617,Wunderground v.1.15,2013-08-03 23:50:00,
2013-08-03 17:00:00,82.7,54.5,29.91,NE,45,0.0,0.0,38,0.00,,,0.00,592,Wunderground v.1.15,2013-08-04 00:00:00,
2013-08-03 17:10:00,82.1,55.4,29.91,NNW,334,0.0,1.0,40,0.00,,,0.00,489,Wunderground v.1.15,2013-08-04 00:10:00,
2013-08-03 17:20:00,82.5,55.0,29.91,SW,218,1.0,1.0,39,0.00,,,0.00,60,Wunderground v.1.15,2013-08-04 00:20:00,
2013-08-03 17:30:00,82.2,54.8,29.91,NE,46,0.0,0.0,39,0.00,,,0.00,37,Wunderground v.1.15,2013-08-04 00:30:00,
2013-08-03 17:40:00,81.4,55.4,29.91,North,360,0.0,0.0,41,0.00,,,0.00,44,Wunderground v.1.15,2013-08-04 00:40:00,
2013-08-03 17:50:00,80.5,54.0,29.91,NNW,330,0.0,1.0,40,0.00,,,0.00,51,Wunderground v.1.15,2013-08-04 00:50:00,
2013-08-03 18:00:00,79.6,52.5,29.91,North,360,1.0,1.0,39,0.00,,,0.00,25,Wunderground v.1.15,2013-08-04 01:00:00,
2013-08-03 18:10:00,78.7,53.0,29.91,NE,37,1.0,1.0,41,0.00,,,0.00,23,Wunderground v.1.15,2013-08-04 01:10:00,
2013-08-03 18:19:00,78.4,52.7,29.91,ENE,61,0.0,0.0,41,0.00,,,0.00,23,Wunderground v.1.15,2013-08-04 01:19:00,
2013-08-03 18:29:00,78.2,52.6,29.91,SSW,194,0.0,1.0,41,0.00,,,0.00,21,Wunderground v.1.15,2013-08-04 01:29:00,
2013-08-03 18:40:00,77.9,53.0,29.91,WNW,296,0.0,0.0,42,0.00,,,0.00,21,Wunderground v.1.15,2013-08-04 01:40:00,
2013-08-03 18:50:00,77.4,53.1,29.91,WSW,253,0.0,0.0,43,0.00,,,0.00,19,Wunderground v.1.15,2013-08-04 01:50:00,
2013-08-03 18:59:00,76.6,53.1,29.91,East,86,0.0,0.0,44,0.00,,,0.00,18,Wunderground v.1.15,2013-08-04 01:59:00,
2013-08-03 19:10:00,75.9,53.0,29.91,West,279,0.0,0.0,45,0.00,,,0.00,18,Wunderground v.1.15,2013-08-04 02:10:00,
2013-08-03 19:20:00,75.5,53.3,29.91,WNW,288,0.0,0.0,46,0.00,,,0.00,16,Wunderground v.1.15,2013-08-04 02:20:00,
2013-08-03 19:30:00,75.2,53.0,29.92,NW,311,0.0,0.0,46,0.00,,,0.00,14,Wunderground v.1.15,2013-08-04 02:30:00,
2013-08-03 19:40:00,74.6,53.0,29.92,NW,313,0.0,0.0,47,0.00,,,0.00,12,Wunderground v.1.15,2013-08-04 02:40:00,
2013-08-03 19:50:00,73.9,53.0,29.92,NNW,341,0.0,1.0,48,0.00,,,0.00,11,Wunderground v.1.15,2013-08-04 02:50:00,
2013-08-03 20:00:00,73.1,53.4,29.92,WNW,294,1.0,2.0,50,0.00,,,0.00,5,Wunderground v.1.15,2013-08-04 03:00:00,
2013-08-03 20:10:00,72.6,52.9,29.92,WNW,294,0.0,0.0,50,0.00,,,0.00,0,Wunderground v.1.15,2013-08-04 03:10:00,
2013-08-03 20:20:00,72.0,52.9,29.92,WNW,294,0.0,0.0,51,0.00,,,0.00,0,Wunderground v.1.15,2013-08-04 03:20:00,
2013-08-03 20:29:00,71.3,52.8,29.92,WNW,294,0.0,0.0,52,0.00,,,0.00,0,Wunderground v.1.15,2013-08-04 03:29:00,
2013-08-03 20:40:00,70.5,52.0,29.93,NNW,335,0.0,0.0,52,0.00,,,0.00,0,Wunderground v.1.15,2013-08-04 03:40:00,
2013-08-03 20:50:00,69.8,51.4,29.93,WNW,303,0.0,0.0,52,0.00,,,0.00,0,Wunderground v.1.15,2013-08-04 03:50:00,
2013-08-03 21:00:00,69.3,51.4,29.94,WNW,303,0.0,0.0,53,0.00,,,0.00,0,Wunderground v.1.15,2013-08-04 04:00:00,
2013-08-03 21:10:00,68.8,51.0,29.94,WNW,303,0.0,0.0,53,0.00,,,0.00,0,Wunderground v.1.15,2013-08-04 04:10:00,
2013-08-03 21:20:00,68.3,51.0,29.94,WNW,303,0.0,0.0,54,0.00,,,0.00,0,Wunderground v.1.15,2013-08-04 04:20:00,
2013-08-03 21:30:00,67.7,50.9,29.94,WNW,303,0.0,0.0,55,0.00,,,0.00,0,Wunderground v.1.15,2013-08-04 04:30:00,
2013-08-03 21:40:00,67.1,50.9,29.95,North,5,0.0,1.0,56,0.00,,,0.00,0,Wunderground v.1.15,2013-08-04 04:40:00,
2013-08-03 21:50:00,66.7,50.0,29.95,North,5,0.0,0.0,55,0.00,,,0.00,0,Wunderground v.1.15,2013-08-04 04:50:00,
2013-08-03 22:00:00,66.4,50.2,29.95,NNE,20,0.0,0.0,56,0.00,,,0.00,0,Wunderground v.1.15,2013-08-04 05:00:00,
2013-08-03 22:10:00,66.4,50.7,29.95,NNE,19,0.0,0.0,57,0.00,,,0.00,0,Wunderground v.1.15,2013-08-04 05:10:00,
2013-08-03 22:20:00,66.4,50.7,29.96,ESE,104,0.0,0.0,57,0.00,,,0.00,0,Wunderground v.1.15,2013-08-04 05:20:00,
2013-08-03 22:30:00,66.1,50.4,29.96,ESE,104,0.0,0.0,57,0.00,,,0.00,0,Wunderground v.1.15,2013-08-04 05:30:00,
2013-08-03 22:40:00,65.9,50.7,29.96,ESE,105,0.0,0.0,58,0.00,,,0.00,0,Wunderground v.1.15,2013-08-04 05:40:00,
2013-08-03 22:50:00,65.6,50.9,29.96,WSW,252,1.0,1.0,59,0.00,,,0.00,0,Wunderground v.1.15,2013-08-04 05:50:00,
2013-08-03 23:00:00,65.0,50.8,29.96,WSW,257,0.0,0.0,60,0.00,,,0.00,0,Wunderground v.1.15,2013-08-04 06:00:00,
2013-08-03 23:10:00,64.5,50.7,29.96,WSW,257,0.0,0.0,61,0.00,,,0.00,0,Wunderground v.1.15,2013-08-04 06:10:00,
2013-08-03 23:20:00,63.8,50.5,29.97,WSW,255,0.0,0.0,62,0.00,,,0.00,0,Wunderground v.1.15,2013-08-04 06:20:00,
2013-08-03 23:30:00,63.1,50.3,29.97,WSW,244,1.0,1.0,63,0.00,,,0.00,0,Wunderground v.1.15,2013-08-04 06:30:00,
2013-08-03 23:40:00,62.5,50.2,29.97,South,182,0.0,0.0,64,0.00,,,0.00,0,Wunderground v.1.15,2013-08-04 06:40:00,
2013-08-03 23:50:00,62.4,50.5,29.97,South,183,0.0,2.0,65,0.00,,,0.00,0,Wunderground v.1.15,2013-08-04 06:50:00,